| time (UTC) | temp C | wind direction | speed KPH | gust KPH | rain 1hr cm | rain 24hr cm | rain mn cm | humidity % | barometer mb |
| 20260509183009 | 24 | 5 | 6.4 | 20.9 | 0.00 | 0.00 | 0.00 | 29 | 1008.2 |
| 20260509182503 | 24 | 353 | 4.8 | 16.1 | 0.00 | 0.00 | 0.00 | 30 | 1008.4 |
| 20260509182004 | 24 | 341 | 4.8 | 11.3 | 0.00 | 0.00 | 0.00 | 29 | 1008.3 |
| 20260509181508 | 24 | 359 | 3.2 | 8.0 | 0.00 | 0.00 | 0.00 | 30 | 1008.3 |
| 20260509181004 | 24 | 22 | 3.2 | 8.0 | 0.00 | 0.00 | 0.00 | 32 | 1008.2 |
| 20260509180504 | 23 | 25 | 3.2 | 16.1 | 0.00 | 0.00 | 0.00 | 33 | 1008.2 |
| 20260509180008 | 23 | 25 | 4.8 | 16.1 | 0.00 | 0.00 | 0.00 | 32 | 1008.2 |
| 20260509175503 | 23 | 28 | 3.2 | 12.9 | 0.00 | 0.00 | 0.00 | 35 | 1008.1 |
| 20260509175004 | 23 | 31 | 3.2 | 8.0 | 0.00 | 0.00 | 0.00 | 31 | 1008.1 |
| 20260509174510 | 23 | 17 | 3.2 | 12.9 | 0.00 | 0.00 | 0.00 | 33 | 1008.2 |
| 20260509173504 | 23 | 341 | 3.2 | 9.7 | 0.00 | 0.00 | 0.00 | 33 | 1008.1 |
| 20260509173008 | 23 | 7 | 4.8 | 11.3 | 0.00 | 0.00 | 0.00 | 32 | 1008.0 |
| 20260509172503 | 22 | 22 | 4.8 | 12.9 | 0.00 | 0.00 | 0.00 | 32 | 1008.1 |
| 20260509172004 | 23 | 11 | 4.8 | 12.9 | 0.00 | 0.00 | 0.00 | 33 | 1008.2 |
| 20260509171509 | 23 | 355 | 3.2 | 12.9 | 0.00 | 0.00 | 0.00 | 33 | 1008.3 |
| 20260509171003 | 22 | 17 | 1.6 | 11.3 | 0.00 | 0.00 | 0.00 | 33 | 1008.4 |
| 20260509165503 | 22 | 10 | 4.8 | 12.9 | 0.00 | 0.00 | 0.00 | 34 | 1008.4 |
| 20260509165003 | 22 | 359 | 3.2 | 12.9 | 0.00 | 0.00 | 0.00 | 34 | 1008.3 |
| 20260509164508 | 22 | 359 | 3.2 | 9.7 | 0.00 | 0.00 | 0.00 | 35 | 1008.3 |
| 20260509164003 | 21 | 359 | 3.2 | 14.5 | 0.00 | 0.00 | 0.00 | 35 | 1008.3 |
| 20260509163503 | 21 | 351 | 4.8 | 14.5 | 0.00 | 0.00 | 0.00 | 36 | 1008.4 |
| 20260509163008 | 21 | 352 | 4.8 | 14.5 | 0.00 | 0.00 | 0.00 | 36 | 1008.3 |
| 20260509162004 | 21 | 340 | 3.2 | 12.9 | 0.00 | 0.00 | 0.00 | 36 | 1008.1 |
| 20260509160009 | 20 | 337 | 3.2 | 12.9 | 0.00 | 0.00 | 0.00 | 39 | 1008.3 |
| 20260509155004 | 20 | 353 | 4.8 | 17.7 | 0.00 | 0.00 | 0.00 | 41 | 1008.4 |
| 20260509154508 | 20 | 347 | 4.8 | 17.7 | 0.00 | 0.00 | 0.00 | 42 | 1008.6 |
| 20260509154003 | 20 | 10 | 4.8 | 19.3 | 0.00 | 0.00 | 0.00 | 43 | 1008.6 |
| 20260509153009 | 20 | 359 | 4.8 | 14.5 | 0.00 | 0.00 | 0.00 | 43 | 1008.7 |
| 20260509152503 | 19 | 357 | 4.8 | 16.1 | 0.00 | 0.00 | 0.00 | 43 | 1008.8 |
| 20260509152003 | 19 | 351 | 4.8 | 16.1 | 0.00 | 0.00 | 0.00 | 44 | 1008.8 |
| 20260509151509 | 19 | 352 | 4.8 | 12.9 | 0.00 | 0.00 | 0.00 | 45 | 1008.6 |
| 20260509150503 | 19 | 353 | 4.8 | 9.7 | 0.00 | 0.00 | 0.00 | 46 | 1008.5 |
| 20260509150008 | 19 | 333 | 4.8 | 17.7 | 0.00 | 0.00 | 0.00 | 45 | 1008.3 |
| 20260509145505 | 19 | 315 | 3.2 | 17.7 | 0.00 | 0.00 | 0.00 | 45 | 1008.6 |
| 20260509145005 | 19 | 189 | 1.6 | 6.4 | 0.00 | 0.00 | 0.00 | 46 | 1007.6 |
| 20260509144004 | 18 | 170 | 1.6 | 4.8 | 0.00 | 0.00 | 0.00 | 49 | 1007.2 |
| 20260509143503 | 18 | 216 | 0.0 | 4.8 | 0.00 | 0.00 | 0.00 | 48 | 1007.4 |
| 20260509142503 | 18 | 190 | 3.2 | 6.4 | 0.00 | 0.00 | 0.00 | 48 | 1007.5 |
| 20260509142004 | 17 | 198 | 1.6 | 6.4 | 0.00 | 0.00 | 0.00 | 48 | 1007.6 |
| 20260509141508 | 17 | 204 | 1.6 | 6.4 | 0.00 | 0.00 | 0.00 | 48 | 1007.6 |
| 20260509141004 | 17 | 196 | 1.6 | 4.8 | 0.00 | 0.00 | 0.00 | 49 | 1007.6 |
| 20260509140503 | 17 | 172 | 0.0 | 4.8 | 0.00 | 0.00 | 0.00 | 55 | 1007.6 |
| 20260509135504 | 16 | 158 | 0.0 | 3.2 | 0.00 | 0.00 | 0.00 | 60 | 1007.6 |
| 20260509135003 | 15 | 136 | 0.0 | 3.2 | 0.00 | 0.00 | 0.00 | 61 | 1007.7 |
| 20260509134508 | 14 | 34 | 0.0 | 3.2 | 0.00 | 0.00 | 0.00 | 62 | 1007.6 |
| 20260509134003 | 14 | 0 | 0.0 | 0.0 | 0.00 | 0.00 | 0.00 | 66 | 1007.6 |
| 20260509133504 | 13 | 0 | 0.0 | 0.0 | 0.00 | 0.00 | 0.00 | 66 | 1007.4 |
| 20260509133008 | 13 | 0 | 0.0 | 0.0 | 0.00 | 0.00 | 0.00 | 68 | 1007.5 |
| 20260509132003 | 12 | 0 | 0.0 | 0.0 | 0.00 | 0.00 | 0.00 | 69 | 1007.4 |
| 20260509131508 | 12 | 0 | 0.0 | 0.0 | 0.00 | 0.00 | 0.00 | 70 | 1007.5 |
| 20260509130503 | 11 | 0 | 0.0 | 0.0 | 0.00 | 0.00 | 0.00 | 72 | 1007.5 |
| 20260509130008 | 10 | 0 | 0.0 | 0.0 | 0.00 | 0.00 | 0.00 | 74 | 1007.5 |
| 20260509125004 | 9 | 0 | 0.0 | 0.0 | 0.00 | 0.00 | 0.00 | 79 | 1007.5 |
| 20260509124508 | 8 | 0 | 0.0 | 0.0 | 0.00 | 0.00 | 0.00 | 81 | 1007.4 |
| 20260509124004 | 8 | 0 | 0.0 | 0.0 | 0.00 | 0.00 | 0.00 | 82 | 1007.5 |
| 20260509123503 | 8 | 0 | 0.0 | 0.0 | 0.00 | 0.00 | 0.00 | 83 | 1007.5 |
| 20260509123008 | 7 | 0 | 0.0 | 0.0 | 0.00 | 0.00 | 0.00 | 84 | 1007.5 |
| 20260509122503 | 7 | 0 | 0.0 | 0.0 | 0.00 | 0.00 | 0.00 | 85 | 1007.3 |
| 20260509122003 | 7 | 0 | 0.0 | 0.0 | 0.00 | 0.00 | 0.00 | 84 | 1007.3 |
| 20260509121508 | 6 | 0 | 0.0 | 0.0 | 0.00 | 0.00 | 0.00 | 85 | 1007.4 |
| 20260509121004 | 6 | 0 | 0.0 | 0.0 | 0.00 | 0.00 | 0.00 | 85 | 1007.3 |
| 20260509115503 | 6 | 0 | 0.0 | 0.0 | 0.00 | 0.00 | 0.00 | 84 | 1007.3 |
| 20260509115003 | 6 | 0 | 0.0 | 0.0 | 0.00 | 0.00 | 0.00 | 84 | 1007.2 |
| 20260509114510 | 6 | 0 | 0.0 | 0.0 | 0.00 | 0.00 | 0.00 | 84 | 1007.0 |
| 20260509114004 | 6 | 0 | 0.0 | 0.0 | 0.00 | 0.00 | 0.00 | 84 | 1007.0 |
| 20260509113503 | 6 | 0 | 0.0 | 0.0 | 0.00 | 0.00 | 0.00 | 84 | 1007.0 |
| 20260509113008 | 6 | 0 | 0.0 | 0.0 | 0.00 | 0.00 | 0.00 | 82 | 1006.9 |
| 20260509112503 | 6 | 0 | 0.0 | 0.0 | 0.00 | 0.00 | 0.00 | 82 | 1006.9 |
| 20260509112004 | 6 | 0 | 0.0 | 0.0 | 0.00 | 0.00 | 0.00 | 82 | 1006.9 |
| 20260509111003 | 6 | 0 | 0.0 | 0.0 | 0.00 | 0.00 | 0.00 | 82 | 1006.8 |
| 20260509110008 | 6 | 0 | 0.0 | 0.0 | 0.00 | 0.00 | 0.00 | 81 | 1006.8 |
| 20260509105504 | 6 | 0 | 0.0 | 0.0 | 0.00 | 0.00 | 0.00 | 81 | 1006.8 |
| 20260509105003 | 6 | 0 | 0.0 | 0.0 | 0.00 | 0.00 | 0.00 | 81 | 1006.8 |
| 20260509104508 | 6 | 0 | 0.0 | 0.0 | 0.00 | 0.00 | 0.00 | 82 | 1006.8 |
| 20260509104003 | 6 | 0 | 0.0 | 0.0 | 0.00 | 0.00 | 0.00 | 82 | 1006.9 |
| 20260509103505 | 6 | 0 | 0.0 | 0.0 | 0.00 | 0.00 | 0.00 | 81 | 1007.0 |
| 20260509103009 | 6 | 0 | 0.0 | 0.0 | 0.00 | 0.00 | 0.00 | 81 | 1006.9 |
| 20260509102504 | 6 | 0 | 0.0 | 0.0 | 0.00 | 0.00 | 0.00 | 81 | 1006.8 |
| 20260509102004 | 6 | 0 | 0.0 | 0.0 | 0.00 | 0.00 | 0.00 | 80 | 1006.8 |
| 20260509101508 | 6 | 0 | 0.0 | 0.0 | 0.00 | 0.00 | 0.00 | 80 | 1006.8 |
| 20260509101003 | 6 | 0 | 0.0 | 0.0 | 0.00 | 0.00 | 0.00 | 80 | 1006.8 |
| 20260509100503 | 6 | 0 | 0.0 | 0.0 | 0.00 | 0.00 | 0.00 | 80 | 1006.8 |
| 20260509100009 | 7 | 0 | 0.0 | 0.0 | 0.00 | 0.00 | 0.00 | 79 | 1006.9 |
| 20260509095503 | 7 | 0 | 0.0 | 0.0 | 0.00 | 0.00 | 0.00 | 79 | 1006.8 |
| 20260509095003 | 7 | 0 | 0.0 | 0.0 | 0.00 | 0.00 | 0.00 | 78 | 1006.9 |
| 20260509094508 | 7 | 0 | 0.0 | 0.0 | 0.00 | 0.00 | 0.00 | 78 | 1006.8 |
| 20260509094003 | 7 | 0 | 0.0 | 0.0 | 0.00 | 0.00 | 0.00 | 77 | 1006.9 |
| 20260509093505 | 7 | 0 | 0.0 | 0.0 | 0.00 | 0.00 | 0.00 | 77 | 1006.9 |
| 20260509093008 | 7 | 0 | 0.0 | 0.0 | 0.00 | 0.00 | 0.00 | 77 | 1006.9 |
| 20260509092503 | 7 | 0 | 0.0 | 0.0 | 0.00 | 0.00 | 0.00 | 78 | 1006.9 |
| 20260509092004 | 7 | 0 | 0.0 | 0.0 | 0.00 | 0.00 | 0.00 | 78 | 1006.9 |
| 20260509091508 | 7 | 0 | 0.0 | 0.0 | 0.00 | 0.00 | 0.00 | 77 | 1006.8 |
| 20260509091003 | 7 | 0 | 0.0 | 0.0 | 0.00 | 0.00 | 0.00 | 76 | 1006.9 |
| 20260509090505 | 7 | 0 | 0.0 | 0.0 | 0.00 | 0.00 | 0.00 | 75 | 1006.8 |
| 20260509090008 | 7 | 0 | 0.0 | 0.0 | 0.00 | 0.00 | 0.00 | 75 | 1006.8 |
| 20260509085503 | 7 | 0 | 0.0 | 0.0 | 0.00 | 0.00 | 0.00 | 76 | 1006.7 |
| 20260509085004 | 8 | 0 | 0.0 | 0.0 | 0.00 | 0.00 | 0.00 | 73 | 1006.7 |
| 20260509084508 | 8 | 0 | 0.0 | 0.0 | 0.00 | 0.00 | 0.00 | 73 | 1006.7 |
| 20260509084003 | 8 | 0 | 0.0 | 0.0 | 0.00 | 0.00 | 0.00 | 72 | 1006.7 |
| 20260509083504 | 8 | 0 | 0.0 | 0.0 | 0.00 | 0.00 | 0.00 | 72 | 1006.6 |
| 20260509083009 | 8 | 0 | 0.0 | 0.0 | 0.00 | 0.00 | 0.00 | 72 | 1006.6 |
| 20260509082503 | 8 | 0 | 0.0 | 0.0 | 0.00 | 0.00 | 0.00 | 71 | 1006.7 |
| 20260509081508 | 9 | 0 | 0.0 | 0.0 | 0.00 | 0.00 | 0.00 | 69 | 1006.6 |
| 20260509081004 | 9 | 0 | 0.0 | 0.0 | 0.00 | 0.00 | 0.00 | 68 | 1006.7 |
| 20260509080503 | 10 | 0 | 0.0 | 0.0 | 0.00 | 0.00 | 0.00 | 68 | 1006.6 |
| 20260509080008 | 10 | 0 | 0.0 | 0.0 | 0.00 | 0.00 | 0.00 | 67 | 1006.6 |
| 20260509075504 | 10 | 0 | 0.0 | 0.0 | 0.00 | 0.00 | 0.00 | 67 | 1006.7 |
| 20260509075004 | 10 | 0 | 0.0 | 0.0 | 0.00 | 0.00 | 0.00 | 66 | 1006.6 |
| 20260509074508 | 10 | 0 | 0.0 | 0.0 | 0.00 | 0.00 | 0.00 | 66 | 1006.8 |
| 20260509074003 | 10 | 0 | 0.0 | 0.0 | 0.00 | 0.00 | 0.00 | 65 | 1006.8 |
| 20260509073504 | 11 | 0 | 0.0 | 0.0 | 0.00 | 0.00 | 0.00 | 63 | 1006.7 |
| 20260509073009 | 11 | 0 | 0.0 | 0.0 | 0.00 | 0.00 | 0.00 | 63 | 1006.8 |
| 20260509072503 | 11 | 0 | 0.0 | 0.0 | 0.00 | 0.00 | 0.00 | 64 | 1006.7 |
| 20260509072003 | 11 | 0 | 0.0 | 0.0 | 0.00 | 0.00 | 0.00 | 60 | 1006.7 |
| 20260509071508 | 12 | 0 | 0.0 | 0.0 | 0.00 | 0.00 | 0.00 | 61 | 1006.8 |
| 20260509071003 | 12 | 0 | 0.0 | 0.0 | 0.00 | 0.00 | 0.00 | 59 | 1006.7 |
| 20260509070503 | 12 | 0 | 0.0 | 0.0 | 0.00 | 0.00 | 0.00 | 60 | 1006.8 |
| 20260509070008 | 12 | 0 | 0.0 | 0.0 | 0.00 | 0.00 | 0.00 | 60 | 1006.8 |
| 20260509065503 | 12 | 0 | 0.0 | 0.0 | 0.00 | 0.00 | 0.00 | 59 | 1006.9 |
| 20260509065004 | 12 | 0 | 0.0 | 0.0 | 0.00 | 0.00 | 0.00 | 58 | 1006.8 |
| 20260509064508 | 12 | 0 | 0.0 | 0.0 | 0.00 | 0.00 | 0.00 | 57 | 1006.9 |
| 20260509063504 | 13 | 0 | 0.0 | 0.0 | 0.00 | 0.00 | 0.00 | 55 | 1007.0 |
| 20260509063008 | 13 | 0 | 0.0 | 0.0 | 0.00 | 0.00 | 0.00 | 53 | 1007.0 |
| 20260509062504 | 14 | 0 | 0.0 | 0.0 | 0.00 | 0.00 | 0.00 | 53 | 1007.0 |
| 20260509062003 | 14 | 0 | 0.0 | 0.0 | 0.00 | 0.00 | 0.00 | 52 | 1007.0 |
| 20260509061508 | 14 | 356 | 0.0 | 1.6 | 0.00 | 0.00 | 0.00 | 51 | 1007.0 |
| 20260509061003 | 15 | 356 | 0.0 | 1.6 | 0.00 | 0.00 | 0.00 | 51 | 1006.9 |
| 20260509060503 | 15 | 356 | 0.0 | 1.6 | 0.00 | 0.00 | 0.00 | 50 | 1006.9 |
| 20260509060009 | 15 | 33 | 0.0 | 1.6 | 0.00 | 0.00 | 0.00 | 50 | 1006.9 |
| 20260509055003 | 15 | 33 | 0.0 | 1.6 | 0.00 | 0.00 | 0.00 | 49 | 1007.0 |
| 20260509054003 | 16 | 332 | 0.0 | 4.8 | 0.00 | 0.00 | 0.00 | 48 | 1006.9 |
| 20260509053009 | 16 | 355 | 0.0 | 4.8 | 0.00 | 0.00 | 0.00 | 48 | 1006.8 |
| 20260509052504 | 15 | 359 | 0.0 | 4.8 | 0.00 | 0.00 | 0.00 | 49 | 1006.8 |
| 20260509051508 | 15 | 356 | 0.0 | 4.8 | 0.00 | 0.00 | 0.00 | 52 | 1006.8 |
| 20260509051003 | 14 | 345 | 0.0 | 1.6 | 0.00 | 0.00 | 0.00 | 53 | 1006.8 |
| 20260509050505 | 14 | 345 | 0.0 | 1.6 | 0.00 | 0.00 | 0.00 | 54 | 1006.7 |
| 20260509050009 | 14 | 345 | 0.0 | 1.6 | 0.00 | 0.00 | 0.00 | 55 | 1006.5 |
| 20260509045504 | 14 | 345 | 0.0 | 1.6 | 0.00 | 0.00 | 0.00 | 54 | 1006.6 |
| 20260509044508 | 13 | 345 | 0.0 | 1.6 | 0.00 | 0.00 | 0.00 | 55 | 1006.5 |
| 20260509044003 | 13 | 345 | 0.0 | 1.6 | 0.00 | 0.00 | 0.00 | 57 | 1006.5 |
| 20260509043504 | 13 | 345 | 0.0 | 1.6 | 0.00 | 0.00 | 0.00 | 56 | 1006.5 |
| 20260509043009 | 13 | 345 | 0.0 | 1.6 | 0.00 | 0.00 | 0.00 | 58 | 1006.5 |
| 20260509042503 | 14 | 345 | 0.0 | 1.6 | 0.00 | 0.00 | 0.00 | 59 | 1006.4 |
| 20260509042003 | 14 | 0 | 0.0 | 0.0 | 0.00 | 0.00 | 0.00 | 57 | 1006.4 |
| 20260509041508 | 15 | 345 | 0.0 | 1.6 | 0.00 | 0.00 | 0.00 | 55 | 1006.3 |
| 20260509041003 | 15 | 345 | 0.0 | 1.6 | 0.00 | 0.00 | 0.00 | 55 | 1006.5 |
| 20260509040504 | 15 | 345 | 0.0 | 1.6 | 0.00 | 0.00 | 0.00 | 53 | 1006.4 |
| 20260509040008 | 15 | 345 | 0.0 | 1.6 | 0.00 | 0.00 | 0.00 | 54 | 1006.4 |
| 20260509035503 | 14 | 345 | 0.0 | 1.6 | 0.00 | 0.00 | 0.00 | 54 | 1006.4 |
| 20260509035005 | 15 | 0 | 0.0 | 0.0 | 0.00 | 0.00 | 0.00 | 56 | 1006.2 |
| 20260509034508 | 15 | 0 | 0.0 | 0.0 | 0.00 | 0.00 | 0.00 | 55 | 1006.2 |
| 20260509034005 | 15 | 0 | 0.0 | 0.0 | 0.00 | 0.00 | 0.00 | 54 | 1006.2 |
| 20260509033503 | 16 | 0 | 0.0 | 0.0 | 0.00 | 0.00 | 0.00 | 52 | 1006.1 |
| 20260509033008 | 16 | 345 | 0.0 | 1.6 | 0.00 | 0.00 | 0.00 | 49 | 1006.1 |
| 20260509032504 | 16 | 345 | 0.0 | 1.6 | 0.00 | 0.00 | 0.00 | 50 | 1006.1 |
| 20260509032004 | 16 | 345 | 0.0 | 1.6 | 0.00 | 0.00 | 0.00 | 46 | 1006.0 |
| 20260509031508 | 16 | 345 | 0.0 | 1.6 | 0.00 | 0.00 | 0.00 | 49 | 1006.0 |
| 20260509031003 | 16 | 0 | 0.0 | 0.0 | 0.00 | 0.00 | 0.00 | 48 | 1005.9 |
| 20260509030503 | 16 | 0 | 0.0 | 0.0 | 0.00 | 0.00 | 0.00 | 47 | 1005.8 |
| 20260509030008 | 16 | 0 | 0.0 | 0.0 | 0.00 | 0.00 | 0.00 | 47 | 1005.8 |
| 20260509025004 | 17 | 0 | 0.0 | 0.0 | 0.00 | 0.00 | 0.00 | 46 | 1005.5 |
| 20260509024003 | 17 | 0 | 0.0 | 0.0 | 0.00 | 0.00 | 0.00 | 43 | 1005.5 |
| 20260509023503 | 17 | 0 | 0.0 | 0.0 | 0.00 | 0.00 | 0.00 | 44 | 1005.5 |
| 20260509023008 | 17 | 0 | 0.0 | 0.0 | 0.00 | 0.00 | 0.00 | 43 | 1005.4 |
| 20260509022505 | 18 | 0 | 0.0 | 0.0 | 0.00 | 0.00 | 0.00 | 42 | 1005.3 |
| 20260509022003 | 18 | 0 | 0.0 | 0.0 | 0.00 | 0.00 | 0.00 | 41 | 1005.3 |
| 20260509021508 | 18 | 0 | 0.0 | 0.0 | 0.00 | 0.00 | 0.00 | 40 | 1005.2 |
| 20260509021003 | 19 | 0 | 0.0 | 0.0 | 0.00 | 0.00 | 0.00 | 40 | 1005.1 |
| 20260509020504 | 19 | 0 | 0.0 | 0.0 | 0.00 | 0.00 | 0.00 | 39 | 1005.1 |
| 20260509020008 | 20 | 0 | 0.0 | 0.0 | 0.00 | 0.00 | 0.00 | 38 | 1005.0 |
| 20260509015503 | 20 | 0 | 0.0 | 0.0 | 0.00 | 0.00 | 0.00 | 38 | 1005.0 |
| 20260509015003 | 20 | 345 | 0.0 | 1.6 | 0.00 | 0.00 | 0.00 | 38 | 1005.0 |
| 20260509014508 | 21 | 345 | 0.0 | 1.6 | 0.00 | 0.00 | 0.00 | 37 | 1004.9 |
| 20260509014004 | 21 | 345 | 0.0 | 1.6 | 0.00 | 0.00 | 0.00 | 35 | 1004.8 |
| 20260509013503 | 22 | 345 | 0.0 | 1.6 | 0.00 | 0.00 | 0.00 | 34 | 1004.8 |
| 20260509013008 | 22 | 345 | 0.0 | 1.6 | 0.00 | 0.00 | 0.00 | 32 | 1004.8 |
| 20260509012503 | 23 | 345 | 0.0 | 1.6 | 0.00 | 0.00 | 0.00 | 32 | 1004.7 |
| 20260509012004 | 23 | 328 | 0.0 | 3.2 | 0.00 | 0.00 | 0.00 | 32 | 1004.7 |
| 20260509011508 | 23 | 296 | 0.0 | 4.8 | 0.00 | 0.00 | 0.00 | 31 | 1004.6 |
| 20260509011003 | 23 | 294 | 1.6 | 4.8 | 0.00 | 0.00 | 0.00 | 30 | 1004.6 |
| 20260509005503 | 25 | 315 | 1.6 | 4.8 | 0.00 | 0.00 | 0.00 | 30 | 1004.5 |
| 20260509005004 | 25 | 310 | 1.6 | 11.3 | 0.00 | 0.00 | 0.00 | 29 | 1004.5 |
| 20260509004509 | 25 | 334 | 1.6 | 11.3 | 0.00 | 0.00 | 0.00 | 29 | 1004.5 |
| 20260509004003 | 25 | 341 | 1.6 | 9.7 | 0.00 | 0.00 | 0.00 | 29 | 1004.4 |
| 20260509003503 | 26 | 343 | 3.2 | 9.7 | 0.00 | 0.00 | 0.00 | 29 | 1004.4 |
| 20260509003009 | 26 | 11 | 3.2 | 14.5 | 0.00 | 0.00 | 0.00 | 28 | 1004.4 |
| 20260509002503 | 26 | 6 | 3.2 | 14.5 | 0.00 | 0.00 | 0.00 | 29 | 1004.4 |
| 20260509001508 | 26 | 307 | 3.2 | 11.3 | 0.00 | 0.00 | 0.00 | 29 | 1004.3 |
| 20260509001003 | 26 | 322 | 1.6 | 11.3 | 0.00 | 0.00 | 0.00 | 29 | 1004.3 |
| 20260509000504 | 26 | 327 | 1.6 | 6.4 | 0.00 | 0.00 | 0.00 | 30 | 1004.3 |
| 20260508235503 | 26 | 343 | 3.2 | 11.3 | 0.00 | 0.00 | 0.00 | 31 | 1004.3 |
| 20260508235005 | 26 | 334 | 1.6 | 9.7 | 0.00 | 0.00 | 0.00 | 31 | 1004.3 |
| 20260508234003 | 26 | 317 | 1.6 | 8.0 | 0.00 | 0.00 | 0.00 | 31 | 1004.4 |
| 20260508233503 | 25 | 321 | 3.2 | 11.3 | 0.00 | 0.00 | 0.00 | 31 | 1004.4 |
| 20260508233009 | 25 | 290 | 3.2 | 11.3 | 0.00 | 0.00 | 0.00 | 32 | 1004.5 |
| 20260508232504 | 25 | 224 | 3.2 | 8.0 | 0.00 | 0.00 | 0.00 | 33 | 1004.4 |
| 20260508232004 | 25 | 215 | 1.6 | 8.0 | 0.00 | 0.00 | 0.00 | 33 | 1004.4 |
| 20260508231508 | 25 | 235 | 1.6 | 11.3 | 0.00 | 0.00 | 0.00 | 33 | 1004.4 |
| 20260508231005 | 25 | 242 | 4.8 | 11.3 | 0.00 | 0.00 | 0.00 | 31 | 1004.5 |
| 20260508230008 | 25 | 237 | 4.8 | 11.3 | 0.00 | 0.00 | 0.00 | 32 | 1004.3 |
| 20260508225503 | 26 | 233 | 4.8 | 11.3 | 0.00 | 0.00 | 0.00 | 32 | 1004.3 |
| 20260508225003 | 26 | 233 | 3.2 | 16.1 | 0.00 | 0.00 | 0.00 | 31 | 1004.3 |
| 20260508224508 | 26 | 262 | 1.6 | 16.1 | 0.00 | 0.00 | 0.00 | 31 | 1004.4 |
| 20260508224004 | 26 | 300 | 1.6 | 9.7 | 0.00 | 0.00 | 0.00 | 30 | 1004.5 |
| 20260508223504 | 26 | 251 | 1.6 | 9.7 | 0.00 | 0.00 | 0.00 | 32 | 1004.6 |
| 20260508223008 | 26 | 232 | 1.6 | 6.4 | 0.00 | 0.00 | 0.00 | 32 | 1004.5 |
| 20260508222503 | 25 | 234 | 3.2 | 6.4 | 0.00 | 0.00 | 0.00 | 32 | 1004.6 |
| 20260508222003 | 25 | 234 | 3.2 | 8.0 | 0.00 | 0.00 | 0.00 | 32 | 1004.7 |
| 20260508221508 | 25 | 228 | 3.2 | 8.0 | 0.00 | 0.00 | 0.00 | 33 | 1004.7 |
| 20260508221003 | 25 | 202 | 4.8 | 9.7 | 0.00 | 0.00 | 0.00 | 33 | 1004.8 |
| 20260508220504 | 25 | 195 | 4.8 | 12.9 | 0.00 | 0.00 | 0.00 | 33 | 1004.9 |
| 20260508214508 | 25 | 188 | 3.2 | 8.0 | 0.00 | 0.00 | 0.00 | 36 | 1005.0 |
| 20260508214003 | 24 | 189 | 3.2 | 9.7 | 0.00 | 0.00 | 0.00 | 33 | 1005.1 |
| 20260508213008 | 25 | 216 | 3.2 | 6.4 | 0.00 | 0.00 | 0.00 | 34 | 1005.2 |
| 20260508212004 | 24 | 175 | 1.6 | 4.8 | 0.00 | 0.00 | 0.00 | 33 | 1005.3 |
| 20260508211508 | 25 | 205 | 1.6 | 6.4 | 0.00 | 0.00 | 0.00 | 33 | 1005.3 |
| 20260508211004 | 25 | 216 | 3.2 | 9.7 | 0.00 | 0.00 | 0.00 | 33 | 1005.4 |
| 20260508210504 | 25 | 199 | 3.2 | 9.7 | 0.00 | 0.00 | 0.00 | 33 | 1005.5 |
| 20260508210009 | 25 | 195 | 3.2 | 8.0 | 0.00 | 0.00 | 0.00 | 34 | 1005.5 |
| 20260508205503 | 25 | 240 | 1.6 | 4.8 | 0.00 | 0.00 | 0.00 | 32 | 1005.6 |
| 20260508205004 | 25 | 239 | 1.6 | 4.8 | 0.00 | 0.00 | 0.00 | 34 | 1005.8 |
| 20260508204508 | 25 | 337 | 1.6 | 8.0 | 0.00 | 0.00 | 0.00 | 32 | 1005.8 |
| 20260508204004 | 25 | 335 | 3.2 | 8.0 | 0.00 | 0.00 | 0.00 | 35 | 1005.9 |
| 20260508203503 | 25 | 298 | 3.2 | 9.7 | 0.00 | 0.00 | 0.00 | 31 | 1006.0 |
| 20260508203008 | 25 | 259 | 3.2 | 9.7 | 0.00 | 0.00 | 0.00 | 32 | 1006.1 |
| 20260508202505 | 25 | 216 | 4.8 | 6.4 | 0.00 | 0.00 | 0.00 | 32 | 1006.0 |
| 20260508202003 | 25 | 196 | 4.8 | 8.0 | 0.00 | 0.00 | 0.00 | 33 | 1006.0 |
| 20260508201508 | 25 | 197 | 3.2 | 8.0 | 0.00 | 0.00 | 0.00 | 33 | 1006.2 |
| 20260508201003 | 25 | 192 | 3.2 | 6.4 | 0.00 | 0.00 | 0.00 | 31 | 1006.2 |
| 20260508200008 | 25 | 191 | 3.2 | 9.7 | 0.00 | 0.00 | 0.00 | 31 | 1006.4 |
| 20260508195503 | 25 | 206 | 3.2 | 9.7 | 0.00 | 0.00 | 0.00 | 37 | 1006.6 |
| 20260508195004 | 24 | 215 | 3.2 | 4.8 | 0.00 | 0.00 | 0.00 | 31 | 1006.6 |
| 20260508194508 | 25 | 193 | 1.6 | 6.4 | 0.00 | 0.00 | 0.00 | 34 | 1006.7 |
| 20260508194004 | 25 | 192 | 3.2 | 9.7 | 0.00 | 0.00 | 0.00 | 32 | 1006.7 |
| 20260508193504 | 25 | 193 | 3.2 | 9.7 | 0.00 | 0.00 | 0.00 | 30 | 1006.8 |
| 20260508192504 | 25 | 205 | 1.6 | 4.8 | 0.00 | 0.00 | 0.00 | 31 | 1006.8 |
| 20260508192003 | 25 | 221 | 1.6 | 4.8 | 0.00 | 0.00 | 0.00 | 33 | 1006.8 |
| 20260508191509 | 25 | 206 | 1.6 | 3.2 | 0.00 | 0.00 | 0.00 | 31 | 1006.9 |
| 20260508191003 | 25 | 192 | 1.6 | 6.4 | 0.00 | 0.00 | 0.00 | 30 | 1006.9 |
| 20260508190504 | 25 | 190 | 3.2 | 8.0 | 0.00 | 0.00 | 0.00 | 29 | 1007.0 |
| 20260508190008 | 25 | 188 | 3.2 | 8.0 | 0.00 | 0.00 | 0.00 | 30 | 1007.1 |
| 20260508185504 | 25 | 191 | 3.2 | 8.0 | 0.00 | 0.00 | 0.00 | 30 | 1007.1 |
| 20260508184508 | 25 | 230 | 1.6 | 4.8 | 0.00 | 0.00 | 0.00 | 30 | 1007.2 |
| 20260508184003 | 25 | 203 | 3.2 | 11.3 | 0.00 | 0.00 | 0.00 | 31 | 1007.3 |
| 20260508183503 | 24 | 189 | 4.8 | 11.3 | 0.00 | 0.00 | 0.00 | 32 | 1007.2 |